DW8673 Jerrabomberra AU current weather conditions

sailwx.info

Wind from 278 at 0 knots gusting 0

Air temperature 4.4° C
Dewpoint -1.1° C

Last reported at 2015-Apr-27 19:43 UTC.
Time now 2015-Apr-27 20:42 UTC

Location: S 35°23' E 149°12'.
View on Google Maps.

See reports from other nearby stations

  
Tides and Currents Weather Stations Pressure Air Temp Water Temp Dewpoint Dewpoint Depression Visibility Wind Speed Wind Dir Waves Ship Positions
date/time (UTC)wind fromknots sea level pressurealtimeterstation pressurevisibilityair tempwater tempwave heightnotes
2015-Apr-27 19:43 278 0 gusting 0 4.4
2015-Apr-27 19:38 090 4.4
2015-Apr-27 19:33 068 4.4
2015-Apr-27 19:18 338 4.4
2015-Apr-27 19:13 271 4.4
2015-Apr-27 19:08 4.4
2015-Apr-27 19:03 080 4.4
2015-Apr-27 18:48 243 4.4
2015-Apr-27 18:38 248 0 gusting 1 4.4
2015-Apr-27 18:33 292 4.4
2015-Apr-27 18:18 234 4.4
2015-Apr-27 18:13 225 4.4
2015-Apr-27 18:08 135 0 gusting 1 4.4
2015-Apr-27 18:03 112 4.4
2015-Apr-27 17:48 112 4.4
2015-Apr-27 17:43 191 5.0
2015-Apr-27 17:38 158 5.0
2015-Apr-27 17:33 112 5.0
2015-Apr-27 17:18 112 5.6
2015-Apr-27 17:13 112 5.6
2015-Apr-27 17:03 112 5.6
2015-Apr-27 16:43 112 6.1
2015-Apr-27 16:33 112 6.1
2015-Apr-27 16:13 112 6.1
2015-Apr-27 16:03 269 6.1
2015-Apr-27 15:43 180 5.6
2015-Apr-27 15:33 270 5.6
2015-Apr-27 15:13 112 5.6
2015-Apr-27 15:03 135 6.1
2015-Apr-27 14:43 148 0 gusting 0 7.2
2015-Apr-27 14:33 112 0 gusting 0 7.8
2015-Apr-27 14:13 220 1 gusting 1 8.3
2015-Apr-27 14:03 118 0 gusting 0 8.3
2015-Apr-27 13:43 270 8.3
2015-Apr-27 13:33 270 8.9
2015-Apr-27 13:13 122 9.4
2015-Apr-27 13:03 135 10.0
2015-Apr-27 12:43 083 0 gusting 2 10.0
2015-Apr-27 12:33 127 0 gusting 5 10.0
2015-Apr-27 12:13 128 0 gusting 4 10.0
2015-Apr-27 12:03 163 1 gusting 5 10.0
2015-Apr-27 11:43 132 1 gusting 4 10.0
2015-Apr-27 11:33 123 1 gusting 4 10.0
2015-Apr-27 11:13 194 1 gusting 4 10.0
2015-Apr-27 11:03 113 1 gusting 5 10.6
2015-Apr-27 10:43 138 2 gusting 5 10.6
2015-Apr-27 10:33 126 2 gusting 6 11.1
2015-Apr-27 10:13 136 2 gusting 6 11.7
2015-Apr-27 10:03 139 1 gusting 2 11.7
2015-Apr-27 09:43 090 11.7
2015-Apr-27 09:33 045 12.2
2015-Apr-27 09:13 252 12.2
2015-Apr-27 09:03 090 0 gusting 0 12.2
2015-Apr-27 08:43 140 12.2
2015-Apr-27 08:33 183 0 gusting 0 12.2
2015-Apr-27 08:13 090 11.7
2015-Apr-27 08:03 090 11.7
2015-Apr-27 07:43 225 12.2
2015-Apr-27 07:33 270 12.8
2015-Apr-27 07:13 344 0 gusting 1 13.9
2015-Apr-27 07:03 340 15.0
2015-Apr-27 06:43 249 1 gusting 5 17.8
2015-Apr-27 06:33 332 0 gusting 5 18.9
2015-Apr-27 06:13 303 0 gusting 5 19.4
2015-Apr-27 06:03 265 1 gusting 4 18.9
2015-Apr-27 05:43 349 1 gusting 4 19.4
2015-Apr-27 05:33 317 0 gusting 6 18.9
2015-Apr-27 05:13 241 1 gusting 4 19.4
2015-Apr-27 05:03 244 2 gusting 5 20.6
2015-Apr-27 04:43 330 1 gusting 5 20.0
2015-Apr-27 04:33 266 1 gusting 6 20.0
2015-Apr-27 04:13 255 1 gusting 5 20.0
2015-Apr-27 04:03 242 1 gusting 5 20.0
2015-Apr-27 03:43 265 2 gusting 5 18.9
2015-Apr-27 03:33 152 1 gusting 6 20.0
2015-Apr-27 03:13 262 2 gusting 5 20.0
2015-Apr-27 03:03 259 2 gusting 6 20.0
2015-Apr-27 02:43 014 1 gusting 4 18.9
2015-Apr-27 02:33 299 2 gusting 6 19.4
2015-Apr-27 02:13 345 2 gusting 6 18.3
2015-Apr-27 02:03 350 1 gusting 6 18.9
2015-Apr-27 01:43 256 2 gusting 6 18.3
2015-Apr-27 01:33 252 2 gusting 6 18.3
2015-Apr-27 01:13 222 2 gusting 5 17.8
2015-Apr-27 01:03 216 2 gusting 5 17.2
2015-Apr-27 00:43 151 3 gusting 6 16.7
2015-Apr-27 00:33 256 2 gusting 10 16.7
2015-Apr-27 00:13 084 0 gusting 4 15.6
2015-Apr-27 00:03 344 1 gusting 5 15.0
2015-Apr-26 23:43 113 0 gusting 4 13.9
2015-Apr-26 23:33 225 0 gusting 5 13.3
2015-Apr-26 23:13 349 0 gusting 4 11.7
2015-Apr-26 23:03 313 0 gusting 4 11.7
2015-Apr-26 22:43 181 0 gusting 1 9.4
2015-Apr-26 22:33 033 0 gusting 1 8.9
2015-Apr-26 22:13 357 0 gusting 1 5.6
2015-Apr-26 22:03 312 0 gusting 1 4.4
2015-Apr-26 21:43 255 0 gusting 1 2.8
2015-Apr-26 21:33 270 2.2
2015-Apr-26 21:13 112 1.7
2015-Apr-26 21:03 112 1.7
2015-Apr-26 20:43 202 1.7
2015-Apr-26 20:33 180 1.7
2015-Apr-26 20:13 104 2.2
2015-Apr-26 20:03 090 2.2
2015-Apr-26 19:43 112 2.2
2015-Apr-26 19:33 090 2.8
2015-Apr-26 19:13 131 3.3
2015-Apr-26 19:03 089 0 gusting 1 5.0
2015-Apr-26 17:08 277 0 gusting 1 5.6
2015-Apr-26 17:03 257 6.1
2015-Apr-26 16:48 263 0 gusting 1 6.1
2015-Apr-26 16:43 270 2 gusting 4 6.7
2015-Apr-26 16:38 253 0 gusting 2 6.7
2015-Apr-26 16:33 303 0 gusting 4 6.7
2015-Apr-26 16:18 239 0 gusting 2 6.7
2015-Apr-26 16:13 287 1 gusting 2 6.7
2015-Apr-26 16:08 216 1 gusting 4 6.7
2015-Apr-26 16:03 218 1 gusting 4 6.7
2015-Apr-26 15:48 193 1 gusting 2 7.2
2015-Apr-26 15:43 120 0 gusting 1 7.2
2015-Apr-26 15:38 166 0 gusting 2 7.2
2015-Apr-26 15:33 189 1 gusting 5 7.2
2015-Apr-26 15:18 166 1 gusting 5 7.2
2015-Apr-26 15:13 155 1 gusting 4 7.2
2015-Apr-26 15:08 180 2 gusting 5 7.8
2015-Apr-26 15:03 136 2 gusting 5 7.8
2015-Apr-26 14:48 188 1 gusting 5 7.8
2015-Apr-26 14:43 187 1 gusting 5 7.8
2015-Apr-26 14:38 172 1 gusting 6 7.8
2015-Apr-26 14:33 162 4 gusting 6 7.8
2015-Apr-26 14:18 140 7.8
2015-Apr-26 14:13 233 1 gusting 1 7.8
2015-Apr-26 14:08 193 0 gusting 1 7.8
2015-Apr-26 14:03 096 1 gusting 5 7.8
2015-Apr-26 13:48 050 0 gusting 2 7.8
2015-Apr-26 13:43 106 1 gusting 2 7.8
2015-Apr-26 13:38 113 0 gusting 1 7.8
2015-Apr-26 13:33 248 7.8
2015-Apr-26 13:18 154 0 gusting 2 7.8
2015-Apr-26 13:13 135 0 gusting 1 7.8
2015-Apr-26 13:08 104 0 gusting 2 7.8
2015-Apr-26 13:03 033 0 gusting 5 7.8
2015-Apr-26 12:48 103 0 gusting 1 7.2
2015-Apr-26 12:43 135 7.2
2015-Apr-26 12:38 099 7.8
2015-Apr-26 12:33 090 7.8
2015-Apr-26 12:18 045 0 gusting 1 8.3
2015-Apr-26 12:13 8.3
2015-Apr-26 12:08 147 1 gusting 2 8.3
2015-Apr-26 12:03 096 0 gusting 6 8.3
2015-Apr-26 11:48 134 1 gusting 2 7.8
2015-Apr-26 11:43 331 0 gusting 1 7.8
2015-Apr-26 11:38 090 7.8
2015-Apr-26 11:33 090 7.8
2015-Apr-26 11:18 073 8.3
2015-Apr-26 11:13 240 0 gusting 0 8.3
2015-Apr-26 11:08 090 0 gusting 1 8.3
2015-Apr-26 11:03 097 8.3
2015-Apr-26 10:48 090 0 gusting 1 8.9
2015-Apr-26 10:43 090 9.4
2015-Apr-26 10:38 283 9.4
2015-Apr-26 10:33 191 1 gusting 4 9.4
2015-Apr-26 10:18 144 1 gusting 4 9.4
2015-Apr-26 10:13 133 2 gusting 4 10.0
2015-Apr-26 10:08 113 2 gusting 5 10.0
2015-Apr-26 10:03 148 1 gusting 5 10.0
2015-Apr-26 09:48 128 1 gusting 4 10.0
2015-Apr-26 09:43 117 1 gusting 2 10.0
2015-Apr-26 09:38 106 1 gusting 4 10.6
2015-Apr-26 09:33 252 1 gusting 6 10.6
2015-Apr-26 09:18 192 1 gusting 2 10.6
2015-Apr-26 09:13 107 1 gusting 4 10.6
2015-Apr-26 09:08 156 1 gusting 5 11.1
2015-Apr-26 09:03 137 2 gusting 5 11.1
2015-Apr-26 08:48 144 2 gusting 5 11.1
2015-Apr-26 08:43 175 1 gusting 2 11.1
2015-Apr-26 08:38 018 11.1
2015-Apr-26 08:33 245 0 gusting 4 11.1
2015-Apr-26 08:18 190 0 gusting 1 11.7
2015-Apr-26 08:13 144 1 gusting 1 12.2
2015-Apr-26 08:08 106 0 gusting 2 12.2
2015-Apr-26 08:03 123 1 gusting 1 12.2
2015-Apr-26 07:48 248 12.8
2015-Apr-26 07:43 199 13.3
2015-Apr-26 07:38 093 13.3
2015-Apr-26 07:33 135 0 gusting 2 13.3
2015-Apr-26 07:18 131 0 gusting 1 13.9
2015-Apr-26 07:13 314 14.4
2015-Apr-26 07:08 292 0 gusting 1 14.4
2015-Apr-26 07:03 228 0 gusting 2 14.4
2015-Apr-26 06:48 022 0 gusting 1 15.0
2015-Apr-26 06:43 304 0 gusting 4 15.0
2015-Apr-26 06:38 137 0 gusting 2 15.6
2015-Apr-26 06:33 175 1 gusting 4 15.6
2015-Apr-26 06:18 008 1 gusting 2 16.1
2015-Apr-26 06:13 125 1 gusting 4 16.7
2015-Apr-26 06:08 191 4 gusting 6 17.8
2015-Apr-26 06:03 115 2 gusting 6 18.3
2015-Apr-26 05:48 184 1 gusting 5 17.2
2015-Apr-26 05:43 139 1 gusting 4 17.8
2015-Apr-26 05:38 144 4 gusting 6 18.3
2015-Apr-26 05:33 144 0 gusting 4 17.8
2015-Apr-26 05:18 073 0 gusting 2 17.8
2015-Apr-26 05:13 155 1 gusting 4 17.8
2015-Apr-26 05:08 120 0 gusting 2 18.3
2015-Apr-26 05:03 126 1 gusting 4 17.8
2015-Apr-26 04:33 007 1 gusting 6 18.3
2015-Apr-26 04:13 156 1 gusting 6 17.8
2015-Apr-26 04:03 134 2 gusting 6 17.8
2015-Apr-26 03:43 141 1 gusting 7 17.8
2015-Apr-26 03:33 129 2 gusting 6 17.8
2015-Apr-26 03:13 166 2 gusting 6 18.9
2015-Apr-26 03:03 115 1 gusting 6 19.4
2015-Apr-26 02:43 265 1 gusting 6 17.2
2015-Apr-26 02:33 177 2 gusting 5 17.2
2015-Apr-26 02:13 270 1 gusting 5 17.8
2015-Apr-26 02:03 193 0 gusting 4 17.8
2015-Apr-26 01:43 354 2 gusting 4 16.1
2015-Apr-26 01:33 284 1 gusting 5 16.7
2015-Apr-26 01:13 330 0 gusting 4 16.1
2015-Apr-26 01:03 092 0 gusting 1 15.0
2015-Apr-26 00:43 14.4
2015-Apr-26 00:33 112 13.9
2015-Apr-26 00:13 256 1 gusting 4 13.9
2015-Apr-26 00:03 312 0 gusting 2 13.3
2015-Apr-25 23:43 299 0 gusting 1 11.1
2015-Apr-25 23:33 301 0 gusting 1 10.6
2015-Apr-25 23:13 356 0 gusting 2 10.0
2015-Apr-25 23:03 305 0 gusting 0 10.0
2015-Apr-25 22:43 024 9.4
2015-Apr-25 22:33 090 8.9
2015-Apr-25 22:13 112 8.3
2015-Apr-25 22:03 090 8.3
2015-Apr-25 21:43 252 0 gusting 1 7.8
2015-Apr-25 21:33 270 7.8
2015-Apr-25 21:13 090 7.2
2015-Apr-25 21:03 068 7.2
2015-Apr-25 20:43 158 7.2
2015-Apr-25 20:33 158 7.2
2015-Apr-25 20:13 158 7.2
2015-Apr-25 20:03 158 7.2